Wind_Speed
3 2 6 8 7 4 4 4 4 4 5 6 9 8 13 9 9 9 8 8 9 11 11 16 15 11 11 5 3 14 18 15 11 6 7 8 9 9 8 13 11 11 11 9
3 6 11 6 9 9 9 8 5 1 1 5 7 8 6 8 9 11 10 8 10 6 7 8 7 10 16 20 19 17 17 16 15 14 13 11 12 9 8 13 14 15 14 13
6 12 4 7 10 10 3 5 4 4 1 4 7 3 3 6 4 6 7 7 8 9 8 7 13 20 23 20 18 18 15 14 15 15 16 18 19 19 19 21 18 16 15 13
7 17 13 11 3 1 3 2 4 8 4 4 6 4 10 8 6 10 10 9 9 9 7 9 18 20 21 18 16 14 11 12 14 16 19 20 17 12 14 14 15 16 16 19
10 3 3 1 2 2 4 3 5 4 3 2 3 1 5 9 8 11 10 12 9 8 9 10 17 20 17 16 16 13 11 12 14 17 19 18 15 12 12 15 20 22 23 22
7 3 4 5 3 4 2 3 7 4 3 0 5 7 3 8 14 14 12 13 10 9 9 13 18 18 16 14 14 13 11 12 13 16 16 15 11 11 12 15 17 19 23 24
6 4 5 4 4 3 4 5 3 3 3 5 5 4 1 10 6 2 16 10 7 8 8 7 11 13 12 13 12 11 10 11 13 14 17 13 10 11 12 14 16 20 23 23
2 6 2 2 1 6 4 6 5 6 3 5 3 1 0 7 12 11 7 8 8 7 7 8 11 12 12 12 10 10 9 10 12 14 16 14 12 13 12 14 16 18 21 21
2 3 1 4 3 2 1 2 4 2 2 2 2 3 3 5 10 16 11 9 8 7 7 7 9 11 13 11 10 9 8 9 10 13 15 14 15 10 12 13 16 18 20 22
1 3 3 4 3 2 2 2 3 3 1 2 2 2 3 9 8 9 4 5 6 6 6 6 8 11 12 11 9 8 8 10 11 13 16 13 13 12 15 15 18 17 20 20
5 4 6 2 6 4 5 5 4 4 3 4 2 3 4 10 8 10 7 6 7 7 6 5 8 9 12 9 8 7 8 11 12 14 12 10 12 15 17 19 20 17 21 22
1 2 1 3 2 13 9 4 4 3 5 2 0 2 2 9 5 5 6 6 5 6 6 5 6 7 10 8 7 4 8 13 17 14 13 15 18 20 21 17 20 18 25 23
3 3 2 4 5 5 6 3 4 8 2 1 3 2 1 3 10 8 8 6 6 6 6 4 4 4 6 8 5 2 7 13 18 17 14 16 17 18 17 16 17 24 25 26
2 4 5 4 1 3 4 5 0 3 2 2 2 4 3 5 8 6 7 7 7 6 5 2 2 3 4 8 3 3 4 11 20 18 14 18 16 14 15 13 23 22 25 24
4 4 6 8 9 12 6 7 7 4 5 2 4 7 7 6 8 7 6 6 6 6 5 4 2 4 7 6 4 4 3 10 18 19 15 13 15 18 16 20 25 24 25 23
3 2 4 5 7 10 7 10 7 7 12 10 10 8 0 7 9 8 7 5 6 3 3 5 5 8 5 4 6 4 3 10 16 20 18 15 16 18 19 19 24 24 26 23
3 3 2 1 1 2 6 4 5 4 5 6 5 2 8 8 7 4 4 4 2 4 5 6 7 10 10 10 9 3 3 10 17 20 17 17 17 20 20 19 24 26 23 24
2 3 2 1 3 3 6 3 1 6 5 6 6 5 7 6 5 4 4 1 8 10 9 9 16 18 20 21 12 5 5 13 22 22 17 15 18 20 20 20 22 23 22 20
3 3 3 3 1 4 5 0 4 4 5 3 4 5 7 5 2 7 10 10 10 10 15 17 17 18 20 23 19 6 11 15 25 21 18 16 17 18 22 23 19 21 21 17
5 5 4 2 2 4 6 1 5 5 1 3 2 2 5 1 4 2 7 12 16 17 16 15 17 18 20 20 18 15 15 17 20 22 18 18 17 16 19 24 23 17 20 17
1 3 4 2 2 5 4 3 4 2 4 5 3 4 8 5 4 6 9 13 15 15 14 14 16 18 19 20 19 16 15 15 14 22 20 18 17 15 18 22 21 18 19 17
4 4 2 2 3 3 1 5 5 4 1 5 7 9 14 11 9 9 9 11 14 15 18 17 16 17 18 21 21 18 19 20 11 21 22 22 20 18 20 22 22 18 17 18
1 5 4 4 4 4 2 6 3 4 9 5 10 9 12 11 9 10 9 12 15 15 15 15 15 16 20 23 21 21 22 20 16 22 28 23 20 20 22 24 23 17 19 17
3 2 4 5 1 5 6 8 13 13 10 9 11 12 11 10 9 10 9 10 12 13 14 14 15 17 19 21 22 21 23 20 15 19 23 21 24 25 26 24 23 19 21 18
5 3 5 3 6 12 12 8 11 14 14 15 16 12 12 10 8 7 7 10 11 14 15 14 14 15 17 19 21 23 20 23 17 17 17 22 20 22 24 24 24 23 24 21
3 5 4 4 3 10 6 7 10 14 13 10 13 11 12 13 11 14 11 12 13 15 16 17 15 13 16 19 22 24 25 19 22 19 19 20 20 21 20 22 23 27 25 27
Wind_Direction
267 44 238 234 226 258 235 255 223 239 204 137 181 156 185 180 180 177 184 165 158 172 187 180 182 175 172 157 114 101 87 79 79 73 48 42 29 20 35 40 25 23 14 356
333 251 254 243 257 251 246 263 261 55 294 102 162 181 200 174 181 178 176 162 169 136 172 184 126 108 109 99 95 84 80 71 61 50 43 33 19 26 5 3 2 355 357 3
208 247 288 231 260 250 191 194 167 169 119 55 109 338 228 233 141 132 162 146 147 147 128 126 102 103 103 95 88 82 74 55 38 21 6 1 352 351 344 349 353 359 357 1
231 256 236 254 250 67 180 334 134 133 111 219 178 251 206 200 169 148 143 124 120 129 121 110 112 105 105 101 93 81 64 44 32 16 10 9 7 10 355 356 358 354 356 350
264 279 184 308 350 57 183 137 126 148 169 161 217 179 247 184 190 169 141 135 130 133 120 115 119 118 109 103 94 89 72 50 30 11 6 5 11 10 7 359 352 348 347 347
242 249 162 152 89 83 113 61 32 49 111 1 230 162 278 198 199 159 139 126 138 122 109 106 114 114 110 105 99 91 58 45 18 4 7 11 17 0 344 342 340 343 339 338
336 329 351 113 94 32 75 60 353 346 357 227 296 89 126 339 108 36 120 114 103 99 102 107 106 112 106 97 95 77 50 40 14 3 2 9 12 351 342 343 342 339 341 338
48 321 5 327 147 184 172 161 158 205 216 248 306 103 2 80 74 70 59 130 105 96 107 108 116 121 112 112 99 75 47 43 17 5 4 2 358 344 339 335 337 332 333 331
65 278 282 54 33 94 282 169 204 167 26 72 165 71 346 151 148 154 145 126 121 112 111 121 123 122 126 117 98 75 64 46 12 4 0 351 343 342 323 323 318 319 325 324
179 338 319 335 3 349 170 185 19 0 113 251 296 187 228 197 127 63 56 122 118 119 115 109 113 113 131 121 107 96 54 23 6 357 346 338 330 322 313 310 311 306 319 317
27 111 295 30 18 316 356 18 11 114 101 180 186 249 221 132 143 188 146 140 148 120 114 106 101 98 139 128 122 96 36 13 359 352 353 346 327 318 313 308 306 303 324 320
88 145 318 80 199 100 88 76 95 79 289 157 250 197 88 144 105 20 148 134 120 122 112 103 102 93 139 137 126 77 24 9 3 348 336 331 325 319 312 302 312 307 324 322
328 11 40 0 335 17 65 81 118 124 339 208 129 251 344 180 166 161 133 116 106 106 97 89 77 66 112 149 149 39 8 14 5 345 325 325 332 332 326 319 323 327 327 323
94 37 124 153 50 93 40 28 209 104 108 265 219 117 61 67 103 85 86 94 98 101 103 94 51 30 113 162 183 301 6 21 11 355 336 332 345 345 339 332 339 337 337 331
89 76 82 72 96 80 59 18 342 177 225 144 55 74 29 38 87 85 97 97 86 74 56 31 10 49 149 178 252 282 336 7 6 7 352 346 346 352 349 345 353 340 335 328
38 150 95 60 77 75 63 20 42 38 74 80 83 65 148 101 86 64 64 68 64 72 55 358 25 77 89 222 288 266 342 4 2 6 3 2 353 344 350 343 350 342 342 337
68 107 89 65 310 26 26 337 15 51 72 106 89 102 113 79 83 79 70 57 332 12 39 12 64 54 27 15 349 316 28 1 7 3 3 359 347 347 349 347 351 351 345 344
107 100 105 121 22 44 241 257 274 100 69 75 69 87 113 110 108 150 170 25 21 46 22 44 56 44 32 33 36 81 26 18 12 9 359 349 349 351 351 350 348 352 347 345
157 125 77 113 97 255 319 1 153 129 11 8 92 82 141 147 126 37 65 72 67 51 62 60 51 38 30 26 30 12 17 20 16 6 356 351 350 348 354 342 338 346 348 343
80 76 109 118 142 180 237 204 117 96 11 356 57 83 146 170 67 0 30 59 62 59 52 45 42 36 27 14 17 21 21 17 14 10 358 1 355 3 2 5 354 343 353 343
44 24 108 95 120 288 221 119 128 98 219 273 342 49 79 72 95 99 61 59 61 58 49 47 45 37 24 13 9 15 12 1 353 7 7 6 358 359 350 341 358 349 353 354
154 130 194 99 72 301 318 41 109 198 163 76 54 92 96 97 96 83 70 64 56 50 42 37 33 24 15 17 14 12 8 357 357 11 17 18 9 1 354 351 341 353 353 357
21 172 160 147 199 248 51 112 139 89 86 72 93 92 102 95 83 78 70 58 51 47 42 35 31 26 17 14 12 12 5 9 25 29 27 14 9 10 4 357 352 353 358 350
0 120 105 94 215 96 82 44 91 91 102 91 86 92 91 96 90 78 69 67 57 45 41 37 33 29 19 12 13 14 14 15 8 23 23 13 16 14 11 7 8 4 6 359
198 112 136 71 124 83 87 90 98 97 91 89 93 97 94 98 88 85 76 81 69 56 47 43 35 31 24 15 12 12 9 20 16 11 9 13 10 11 9 15 21 17 24 25
173 163 130 199 180 116 116 95 103 97 99 102 103 95 92 87 80 82 73 88 81 67 57 52 44 39 28 24 19 22 17 23 26 20 15 12 12 12 13 12 11 26 24 27
Height
781 795 801 790 788 783 786 791 796 791 780 788 796 806 801 801 804 810 812 813 813 813 814 818 820 820 823 826 828 829 831 832 831 832 831 830 830 830 829 828 827 825 823 822
791 799 781 778 778 782 784 791 794 787 778 786 803 804 801 801 801 803 808 811 812 814 816 818 821 823 825 825 828 830 831 832 831 831 831 830 830 830 829 828 827 824 822 820
798 781 769 776 779 783 785 785 791 790 786 789 800 812 808 800 795 800 803 804 809 812 817 820 823 823 824 826 829 829 830 830 830 829 829 827 827 826 825 823 823 822 821 819
789 767 774 776 772 771 786 775 776 788 798 815 791 826 809 803 803 801 802 807 811 815 818 820 823 825 826 828 829 828 829 829 829 829 827 826 827 827 826 823 822 821 819 817
788 773 772 776 778 770 784 775 781 787 799 800 799 813 808 800 806 804 804 807 811 814 816 820 823 825 827 828 829 829 829 829 829 828 827 826 825 825 824 822 820 818 816 815
775 759 764 772 772 772 773 781 794 797 805 828 799 812 820 805 796 798 800 805 812 816 817 820 824 826 828 830 830 829 828 828 828 829 827 825 824 823 822 820 818 816 814 811
781 775 770 767 780 775 781 805 832 833 842 840 797 809 830 814 795 807 794 808 814 816 819 823 825 827 828 829 829 828 828 828 828 828 826 824 822 822 820 818 816 814 811 808
802 806 780 768 775 786 790 801 831 833 837 831 797 819 821 817 814 821 814 817 818 821 821 822 824 826 827 828 829 828 829 829 829 827 824 822 821 820 818 816 814 811 809 806
805 797 775 775 774 778 787 802 792 806 813 823 819 823 819 813 813 817 819 819 820 822 823 824 825 826 827 828 829 829 829 829 828 826 823 820 819 817 816 814 811 809 806 802
796 812 786 780 775 776 782 786 813 820 831 836 827 822 833 818 814 819 826 823 822 823 824 825 826 826 827 828 829 829 829 828 825 823 820 818 817 815 813 810 808 805 802 798
797 808 804 787 806 805 802 815 815 822 849 851 844 826 812 815 819 823 821 823 824 824 825 826 826 827 827 828 829 829 828 826 823 820 817 815 813 812 810 807 804 801 798 794
801 807 815 809 803 797 804 813 834 847 841 836 848 826 808 813 818 821 820 823 824 825 827 827 827 827 827 828 828 828 826 824 821 818 816 813 811 808 805 802 800 798 794 790
805 817 832 819 815 806 812 815 821 827 842 827 826 831 817 816 815 817 822 824 826 828 829 829 828 826 827 827 827 826 825 823 820 817 814 811 808 805 802 800 798 794 790 785
805 816 822 837 822 821 827 823 820 824 834 832 837 825 823 818 820 823 825 827 829 829 829 829 827 825 826 826 826 825 824 822 819 815 812 809 806 803 800 798 795 791 786 781
809 825 821 822 821 824 829 830 825 819 817 822 829 831 828 821 825 827 828 829 829 829 829 827 826 825 825 826 824 823 823 821 818 814 810 807 804 802 799 796 792 788 783 778
811 826 822 834 828 829 836 830 829 825 822 825 827 832 827 825 827 829 829 829 829 828 827 826 825 826 826 825 823 822 822 820 818 813 809 806 803 801 797 793 789 785 780 776
814 822 831 837 831 831 847 839 831 829 823 824 836 830 830 833 832 833 833 830 829 828 827 827 828 829 828 826 824 822 821 820 817 813 809 805 803 799 795 791 788 783 778 774
818 823 833 851 837 871 843 829 825 831 831 830 831 834 834 835 833 831 829 829 832 833 833 833 832 832 830 827 823 822 822 821 817 813 809 805 802 798 794 790 786 782 777 773
812 824 843 856 873 854 836 824 827 830 839 831 831 832 834 831 830 836 837 837 838 838 838 838 837 835 832 829 827 824 823 820 817 813 809 805 802 798 794 790 785 781 776 772
813 820 841 855 840 877 841 823 821 825 846 831 830 830 833 834 848 854 847 843 842 841 842 841 839 836 834 831 828 825 822 819 817 814 810 805 802 798 795 790 784 780 776 771
826 837 848 870 857 852 824 819 822 838 849 833 830 830 834 845 848 851 851 847 846 846 846 844 841 839 836 833 829 826 823 821 819 815 810 805 802 799 795 790 785 781 776 771
828 841 858 856 858 861 821 823 834 833 830 832 834 837 842 846 851 852 850 850 850 849 846 846 844 842 839 835 831 828 825 822 819 816 810 806 803 799 795 790 785 781 776 772
836 832 845 839 848 830 824 826 825 828 833 837 840 843 845 849 852 852 853 852 852 851 850 849 847 845 842 838 834 830 827 824 821 816 812 808 804 800 795 791 785 781 777 773
822 820 832 832 831 828 828 829 831 835 840 841 843 846 848 852 854 854 855 856 855 854 853 852 850 847 844 841 837 834 830 826 822 818 815 811 806 801 797 792 788 783 779 774
827 821 828 832 829 829 833 834 837 841 844 846 849 850 852 854 856 856 857 858 858 857 856 854 852 850 848 844 840 836 832 828 824 821 817 814 809 805 800 796 791 787 783 778
818 824 835 838 829 832 839 841 842 844 849 851 851 854 857 857 858 860 860 860 860 859 858 856 854 852 850 847 842 838 834 831 827 823 820 817 812 808 804 799 794 790 786 781